Location: The Saddle
(36.8333°N, 80.3417°W)
Time: 01:50:22
(UTC-05:00)

A-11 Canister half - Pass Details

Date: 19 December 2023
Orbit: 1526 x 1682 km, 47.3° (Epoch: 01 March)

Event Time Altitude Azimuth Distance (km) Brightness Sun altitude
Rises 20:09:02 0° 298° (WNW) 4,934 12.4 -35.4°
Reaches altitude 10° 20:12:18 10° 302° (WNW) 3,947 11.7 -36.0°
Enters shadow 20:21:21 59° 358° (N) 1,888 9.2 -37.8°
